Lefor, ND

11:01 AM MST on February 08, 2016 (GMT -0700)
Dickinson Municipal

Weather History for KDIK - October, 2012

Change the Weather History Date:

Tuesday, October 2, 2012

  Actual Average Record
Temperature  
Mean Temperature 61 °F 50 °F  
Max Temperature 77 °F 63 °F 95 °F (2011)
Min Temperature 45 °F 36 °F 23 °F (1987)
Degree Days  
Heating Degree Days 4 15  
Month to date heating degree days 18 30  
Since 1 July heating degree days 242 384  
Cooling Degree Days 0 0  
Month to date cooling degree days 0 0  
Year to date cooling degree days 591 418  
Growing Degree Days 10 (Base 50)    
Moisture  
Dew Point 34 °F    
Average Humidity 45    
Maximum Humidity 66    
Minimum Humidity 23    
Precipitation  
Precipitation 0.00 in 0.05 in 0.87 in (1994)
Month to date precipitation 0.00 0.10  
Year to date precipitation 8.59 13.86  
Sea Level Pressure  
Sea Level Pressure 29.73 in    
Wind  
Wind Speed 11 mph (WNW)    
Max Wind Speed 21 mph    
Max Gust Speed 28 mph    
Visibility 10 miles    
Events      
T = Trace of Precipitation, MM = Missing Value Source: NWS Daily Summary

Daily Weather History Graph

Daily Weather History Graph

Search for Another Location

Airport or City:

Trip Planner

Search our weather history database for the weather conditions in past years. The results will help you decide how hot, cold, wet, or windy it might be!

Date:

Astronomy

Oct. 02, 2012 Rise Set
Actual Time 6:51 AM MDT 6:27 PM MDT
Civil Twilight 6:21 AM MDT 6:58 PM MDT
Nautical Twilight 5:46 AM MDT 7:33 PM MDT
Astronomical Twilight 5:10 AM MDT 8:08 PM MDT
Moon 7:28 PM MDT (10/2) 9:33 AM MDT (10/2)
Length of Visible Light 12h 36m
Length of Day
11h 35m
Waning Gibbous, 94% of the Moon is Illuminated
Oct 2
Waning Gibbous
Oct 8
Last Quarter
Oct 15
New
Oct 21
First Quarter
Oct 29
Full

Hourly Weather History & Observations

Time (MDT) Temp. Dew Point Humidity Pressure Visibility Wind Dir Wind Speed Gust Speed Precip Events Conditions
12:56 AM 53.1 °F 30.0 °F 41% 29.78 in 10.0 mi South 16.1 mph - N/A   Clear
1:56 AM 53.1 °F 30.9 °F 43% 29.74 in 10.0 mi South 17.3 mph - N/A   Clear
3:56 AM 51.1 °F 30.9 °F 46% 29.68 in 10.0 mi South 16.1 mph - N/A   Clear
4:56 AM 50.0 °F 30.9 °F 48% 29.67 in 10.0 mi South 13.8 mph - N/A   Clear
5:56 AM 50.0 °F 30.9 °F 48% 29.68 in 10.0 mi South 11.5 mph - N/A   Clear
6:56 AM 54.0 °F 30.9 °F 41% 29.68 in 10.0 mi SW 10.4 mph - N/A   Clear
7:56 AM 57.0 °F 32.0 °F 39% 29.69 in 10.0 mi WSW 11.5 mph - N/A   Clear
8:56 AM 60.1 °F 33.1 °F 36% 29.70 in 10.0 mi West 11.5 mph - N/A   Clear
9:56 AM 66.0 °F 33.1 °F 29% 29.69 in 10.0 mi West 12.7 mph - N/A   Clear
10:56 AM 72.0 °F 34.0 °F 25% 29.69 in 10.0 mi WNW 12.7 mph - N/A   Clear
11:56 AM 75.0 °F 35.1 °F 23% 29.69 in 10.0 mi WNW 11.5 mph 20.7 mph N/A   Clear
12:56 PM 75.9 °F 36.0 °F 23% 29.69 in 10.0 mi WNW 16.1 mph 24.2 mph N/A   Clear
1:56 PM 75.9 °F 36.0 °F 23% 29.69 in 10.0 mi NW 15.0 mph 23.0 mph N/A   Clear
2:56 PM 73.9 °F 36.0 °F 25% 29.71 in 10.0 mi NNW 16.1 mph 21.9 mph N/A   Clear
3:56 PM 73.0 °F 36.0 °F 26% 29.73 in 10.0 mi NW 12.7 mph 19.6 mph N/A   Clear
4:56 PM 71.1 °F 37.0 °F 29% 29.75 in 10.0 mi NW 13.8 mph - N/A   Clear
5:56 PM 66.0 °F 36.0 °F 33% 29.77 in 10.0 mi NW 6.9 mph - N/A   Clear
7:56 PM 57.9 °F 36.0 °F 44% 29.78 in 10.0 mi NNE 4.6 mph - N/A   Clear
8:56 PM 57.9 °F 36.0 °F 44% 29.78 in 10.0 mi NNE 5.8 mph - N/A   Clear
9:56 PM 52.0 °F 36.0 °F 54% 29.80 in 10.0 mi NE 5.8 mph - N/A   Clear
10:56 PM 46.9 °F 36.0 °F 66% 29.82 in 10.0 mi ENE 3.5 mph - N/A   Clear
11:56 PM 48.9 °F 37.9 °F 66% 29.82 in 10.0 mi NNE 8.1 mph - N/A   Clear